User: anonymous   Login
Location: Innerarity Island Observatory
(30.3139°N, 87.4867°W)
Time: 22:33:35
(UTC-05:00)
Language:

OPAL - Orbit

View from above orbital plane
View from above orbital plane
View from above satellite
View from above satellite

Ground track
Ground track

The orbit data is extracted from the following two-line orbital elements,

1 26063U 00004C   17117.93689971 -.00000003 +00000-0 +18846-4 0  9995
2 26063 100.2281 112.1767 0037217 090.1927 270.3518 14.36660704903966
Epoch (UTC): 27 April 2017 22:29:08
Eccentricity: 0.0037217
inclination: 100.2281°
perigee height: 743 km
apogee height: 796 km
right ascension of ascending node: 112.1767°
argument of perigee: 90.1927°
revolutions per day: 14.36660704
mean anomaly at epoch: 270.3518°
orbit number at epoch: 90396

The dashed part of the orbit path shows where the satellite is in the earth's shadow,  

DLR